Weather in Briancon

France     44°54′32″N   6°37′31″E
temp.,
°C
wind,
m/s
gust,
m/s
humid.,
%
clouds,
%
prec.,
mm/h
press.,
hPa
HPBL,
m
24 january, sun
sun2401:00−11w229398 0.4 99935
04:00−11wnw2293100 0.0 99938
07:00−12nw239489 0.0 99942
10:00−9nw359046 0.0 1001317
13:00−7nw456629 0.0 1001756
16:00−8wnw23740 0.0 1003147
19:00−13w227122 0.0 100422
22:00−13ssw2296100 0.8 100574
25 january, mon
mon2501:00−11sw2396100 2.9 1003128
04:00−10w2394100 1.3 1003110
07:00−12wnw3493100 2.1 100491
10:00−11wnw358789 0.3 1006498
13:00−9wnw477260 0.4 10061482
16:00−10wnw358245 0.1 1007773
19:00−15wnw239450 0.2 101135
22:00−17nw239540 0.0 101534
26 january, tue
tue2601:00−18nw239631 0.0 101733
04:00−19nw239630 0.0 101840
07:00−19nw239527 0.0 102141
10:00−13nw23818 0.0 1022110
13:00−8nw24634 0.0 1021408
16:00−9nw34740 0.0 1020199
19:00−16wnw236535 0.0 102233
22:00−14wnw235977 0.0 102338
27 january, wed
wed2701:00−11nw336386 0.0 102141
04:00−9nw339397 0.2 102093
07:00−8wnw339697 0.8 1019112
10:00−5wnw339389 0.6 1020161
13:00−1wnw348575 0.6 1019577
16:00−2nw348810 0.0 1019284
19:00−8nw33828 0.0 102155
22:00−7nw347512 0.0 102151
28 january, thu
thu2801:00−8wnw33838 0.0 102148
04:00−6wnw33893 0.0 102058
07:00−2wsw239836 3.0 1019104
10:00−1wsw3499100 7.3 1018163
13:000wsw34100100 13.4 1016214
16:000w34100100 8.8 1015235
19:000w3497100 11.5 1016236
22:00−2w349898 1.4 1016132